• Join FlightAware (Why Join?)
  • Login
  • US Flag 
02:11AM EST


 

Airport Tracker/Info


-or-


 

Live Flight TrackerFlight Track Log ✈ N560HM ✈ 25-Mar-2014 ✈ KTPA - KAPF

Flight Track Log - Related Links

Times and Time Zones

All times are in EDT time to prevent confusion due to time zone crossing. See the N560HM flight status page for this flight to view local times or setup timezone preferences in your user account.

Time Position Orientation Groundspeed Altitude Reporting Facility
EDT Latitude Longitude Course Direction KTS MPH feet Rate Location/Type
07:27PM 27.9833 -82.5333 360° North 177 204 800  Level Tampa TRACON
07:29PM 28.0667 -82.5333 360° North 235 270 3,700 2,346 Climbing Tampa TRACON
07:30PM 28.0667 -82.5833 270° West 249 287 6,000 2,452 Climbing Tampa TRACON
07:31PM 27.9833 -82.5833 180° South 321 369 8,400 2,300 Climbing Tampa TRACON
07:32PM 27.9000 -82.5833 180° South 305 351 10,600 1,368 Climbing Tampa TRACON
07:32PM 27.8167 -82.5667 170° South 334 384 11,000 211 Climbing Tampa TRACON
07:33PM 27.7167 -82.5500 172° South 363 418 11,000  Level Tampa TRACON
07:34PM 27.6167 -82.5333 172° South 359 413 11,000  Level Tampa TRACON
07:37PM 27.4117 -82.4989 172° South 368 423 11,000  Level Miami Center
07:38PM 27.3039 -82.4819 172° South 363 418 11,000 -50 Level Miami Center
07:39PM 27.2086 -82.4656 171° South 357 411 10,900 -50 Descending Miami Center
07:40PM 27.1131 -82.4517 173° South 352 405 10,900  Level Miami Center
07:41PM 27.0178 -82.4353 171° South 352 405 10,900 50 Level Miami Center
07:42PM 26.9325 -82.4244 174° South 347 399 11,000 -250 Climbing Miami Center
07:43PM 26.8392 -82.4083 171° South 347 399 10,400 -1,050 Descending Miami Center
07:44PM 26.7542 -82.3925 171° South 328 377 8,900 -1,450 Descending Miami Center
07:45PM 26.6692 -82.3792 172° South 318 366 7,500 -950 Descending Miami Center
07:46PM 26.5889 -82.3500 162° South 307 353 7,000 -250 Descending Miami Center
07:47PM 26.5158 -82.2978 147° Southeast 307 353 7,000 -550 Level Miami Center
07:48PM 26.4389 -82.2317 142° Southeast 314 361 5,900 -1,250 Descending Miami Center
07:49PM 26.3786 -82.1689 137° Southeast 314 361 4,500 -1,350 Descending Miami Center
07:50PM 26.3181 -82.1058 137° Southeast 302 348 3,200 -1,300 Descending Miami Center
07:52PM 26.2486 -81.9671 138° Southeast  Level Estimated
07:59PM 26.1524 -81.7756 130° Southeast  Level Estimated
08:00PM 26.1524 -81.7756 107° East  Level Estimated
08:01PM 26.1524 -81.7756 130° Southeast  Level Estimated
08:02PM 26.1524 -81.7756 107° East  Level Estimated
08:03PM 26.1524 -81.7756 130° Southeast  Level Estimated